Location: Shannon
(40.5500°S, 175.4167°E)
Time: 06:18:51
(UTC+00:00)

ARGOS Delta rocket - Visible Passes

Search period start: 09 February 2026 00:00
Search period end: 19 February 2026 00:00
Orbit: 632 x 825 km, 96.5° (Epoch: 8 February)

Date Brightness Start Highest point End Pass type
(mag) Time Alt. Az. Time Alt. Az. Time Alt. Az.
9 Feb 6.3 11:00:45 13° SE 11:00:45 13° SE 11:01:58 10° SE visible
9 Feb 5.8 12:40:11 25° SSW 12:40:11 25° SSW 12:42:12 10° SSW visible
10 Feb 5.8 11:52:17 25° SSE 11:52:17 25° SSE 11:54:27 10° S visible
10 Feb 6.5 13:31:43 11° SW 13:31:43 11° SW 13:31:59 10° SW visible
11 Feb 6.2 11:04:22 13° SE 11:04:22 13° SE 11:05:32 10° SSE visible
11 Feb 6.0 12:43:48 22° SSW 12:43:48 22° SSW 12:45:27 10° SSW visible
12 Feb 5.9 11:55:53 24° SSE 11:55:53 24° SSE 11:57:48 10° S visible
13 Feb 6.3 11:07:58 14° SE 11:07:58 14° SE 11:09:03 10° SSE visible
13 Feb 6.2 12:47:24 18° SSW 12:47:24 18° SSW 12:48:41 10° SSW visible
14 Feb 6.0 11:59:28 22° S 11:59:28 22° S 12:01:07 10° S visible
15 Feb 6.3 11:11:33 14° SE 11:11:33 14° SE 11:12:32 10° SSE visible
15 Feb 6.3 12:50:59 16° SSW 12:50:59 16° SSW 12:51:55 10° SSW visible
16 Feb 6.2 12:03:03 20° S 12:03:03 20° S 12:04:26 10° S visible
17 Feb 6.3 11:15:07 14° SSE 11:15:07 14° SSE 11:15:59 10° SSE visible
17 Feb 6.5 12:54:33 13° SSW 12:54:33 13° SSW 12:55:06 10° SSW visible
18 Feb 6.3 12:06:37 18° S 12:06:37 18° S 12:07:44 10° S visible
